Waarnemingen

Advertentie
Mijn weer
Svenska Hogarna A, Zweden (2498): temperatuur & dauwpunt: 14.10.2018 22:00:00 - 20.10.2018 22:00:00 (CEST)Svenska Hogarna A, Zweden (2498): windsnelheid & windstoten: 14.10.2018 22:00:00 - 20.10.2018 22:00:00 (CEST)Svenska Hogarna A, Zweden (2498): windrichting: 14.10.2018 22:00:00 - 20.10.2018 22:00:00 (CEST)Svenska Hogarna A, Zweden (2498): luchtdruk: 14.10.2018 22:00:00 - 20.10.2018 22:00:00 (CEST)Svenska Hogarna A, Zweden (2498): zicht: 14.10.2018 22:00:00 - 20.10.2018 22:00:00 (CEST)Svenska Hogarna A, Zweden (2498): neerslag: 14.10.2018 22:00:00 - 20.10.2018 22:00:00 (CEST)
Datum & Tijd tt [°C] td [°C] ff [km/u] ff [kn] fx [km/u] fx [kn] dd ppp [hPa] vv [km] rr [mm]
20.10.2018 22:00:00 - - - - - - - - - -
20.10.2018 21:00:00 7,8 6,3 13 7 16 9 ZW 1022,9 40 0,0
20.10.2018 20:00:00 7,7 6,6 11 6 13 7 ZW 1022,8 32 0,0
20.10.2018 19:00:00 8,2 6,8 6 3 9 5 WZW 1022,4 50 0,0
20.10.2018 18:00:00 8,4 6,2 3 2 8 4 W 1022,2 45 0,0
20.10.2018 17:00:00 9,2 6,3 5 3 8 5 WZW 1021,9 49 0,0
20.10.2018 16:00:00 9,2 6,5 7 4 11 6 W 1021,7 35 0,0
20.10.2018 15:00:00 9,1 6,5 4 2 7 4 WZW 1021,6 42 0,0
20.10.2018 14:00:00 9,1 6,5 3 1 7 4 Z 1021,7 49 0,0
20.10.2018 13:00:00 9,2 6,3 5 3 9 5 ZZW 1021,4 44 0,0
20.10.2018 12:00:00 9,0 6,4 6 3 8 4 O 1021,3 47 0,0
20.10.2018 11:00:00 8,8 6,4 3 2 11 6 NW 1021,1 50 0,0
20.10.2018 10:00:00 8,6 6,4 9 5 14 8 W 1020,7 37 0,0
20.10.2018 09:00:00 8,4 5,9 8 4 12 7 WZW 1020,3 50 0,0
20.10.2018 08:00:00 8,1 6,6 10 5 17 9 ZW 1020,2 40 0,0
20.10.2018 07:00:00 8,0 6,1 13 7 15 8 ZW 1020,0 49 0,0
20.10.2018 06:00:00 8,2 5,8 8 4 9 5 ZZW 1019,7 50 0,0
20.10.2018 05:00:00 8,3 5,2 3 1 5 3 Z 1019,9 49 0,0
20.10.2018 04:00:00 8,1 5,0 6 3 12 7 WZW 1020,3 47 0,0
20.10.2018 03:00:00 7,7 5,3 9 5 13 7 W 1020,6 29 0,0
20.10.2018 02:00:00 8,0 5,5 11 6 14 8 WZW 1020,9 50 0,0
20.10.2018 01:00:00 8,2 5,7 9 5 16 8 ZW 1020,9 40 0,0
20.10.2018 00:00:00 8,3 5,4 11 6 14 7 WZW 1020,9 48 0,0
19.10.2018 23:00:00 8,2 5,5 11 6 16 9 WZW 1021,0 46 0,0
19.10.2018 22:00:00 8,2 5,1 14 8 18 10 WZW 1021,4 50 0,0
19.10.2018 21:00:00 8,2 6,0 14 8 19 10 WZW 1021,7 50 0,0
19.10.2018 20:00:00 8,3 6,4 15 8 19 10 WZW 1021,4 50 0,0
19.10.2018 19:00:00 8,3 5,1 14 7 17 9 ZW 1021,4 43 0,0
19.10.2018 18:00:00 8,2 5,3 14 8 16 9 ZW 1021,6 48 0,0
19.10.2018 17:00:00 8,5 5,2 11 6 17 9 ZW 1021,5 46 0,0
19.10.2018 16:00:00 9,4 5,6 13 7 17 9 WZW 1021,9 50 0,0
19.10.2018 15:00:00 9,7 3,7 12 6 16 9 WZW 1022,1 47 0,0
19.10.2018 14:00:00 9,8 4,6 13 7 19 10 W 1022,4 49 0,0
19.10.2018 13:00:00 9,1 4,3 15 8 23 12 W 1022,5 50 0,0
19.10.2018 12:00:00 8,5 4,1 19 10 22 12 W 1022,3 43 0,0
19.10.2018 11:00:00 8,5 4,9 17 9 20 11 W 1022,3 43 0,0
19.10.2018 10:00:00 7,1 4,4 14 8 20 11 W 1022,1 47 0,0
19.10.2018 09:00:00 7,5 4,6 19 10 22 12 WNW 1022,0 40 0,0
19.10.2018 08:00:00 7,0 4,3 15 8 22 12 W 1021,6 47 0,0
19.10.2018 07:00:00 7,1 4,4 21 12 29 15 WNW 1021,5 50 0,0
19.10.2018 06:00:00 7,4 5,0 21 11 26 14 W 1021,3 50 0,0
19.10.2018 05:00:00 7,8 5,6 16 8 19 10 W 1021,0 50 0,0
19.10.2018 04:00:00 7,9 6,2 15 8 20 11 W 1021,1 50 0,0
19.10.2018 03:00:00 8,3 6,9 15 8 21 12 W 1021,2 49 0,0
19.10.2018 02:00:00 8,2 7,0 15 8 22 12 W 1021,1 43 0,0
19.10.2018 01:00:00 8,4 7,0 18 10 22 12 W 1021,3 49 0,0
19.10.2018 00:00:00 8,2 7,1 15 8 18 10 W 1020,9 50 0,0
18.10.2018 23:00:00 8,0 6,9 10 6 13 7 W 1020,3 14 0,0
18.10.2018 22:00:00 8,3 6,8 11 6 14 7 WNW 1020,2 37 0,0
18.10.2018 21:00:00 8,8 6,9 11 6 20 11 NW 1019,7 50 0,0
18.10.2018 20:00:00 8,9 7,3 13 7 24 13 NNW 1019,0 48 0,0
18.10.2018 19:00:00 9,0 7,4 16 9 33 18 NNW 1018,4 48 0,0
18.10.2018 18:00:00 9,1 8,0 21 11 36 19 NNW 1017,7 41 0,0
18.10.2018 17:00:00 9,6 8,0 22 12 33 18 NNW 1016,9 45 0,0
18.10.2018 16:00:00 11,3 8,2 22 12 38 21 WNW 1016,1 45 0,0
18.10.2018 15:00:00 11,5 9,2 17 9 23 13 W 1015,2 44 0,0
18.10.2018 14:00:00 11,5 9,9 17 9 24 13 WZW 1014,9 23 0,0
18.10.2018 13:00:00 10,8 10,2 18 10 28 15 WZW 1014,7 6 0,0
18.10.2018 12:00:00 10,8 10,3 24 13 29 15 WZW 1014,8 5 0,1
18.10.2018 11:00:00 10,4 9,9 23 12 28 15 ZW 1014,7 4,0 0,3
18.10.2018 10:00:00 10,3 9,8 25 13 31 17 ZW 1015,0 3,3 0,3
18.10.2018 09:00:00 9,9 9,4 22 12 27 14 ZW 1014,8 3,1 0,1
18.10.2018 08:00:00 9,8 9,3 21 11 29 16 ZW 1014,6 2,7 0,0
18.10.2018 07:00:00 10,0 9,5 24 13 31 17 ZW 1014,6 3,1 0,1
18.10.2018 06:00:00 9,9 9,4 22 12 29 16 ZZW 1014,7 2,9 0,0
18.10.2018 05:00:00 10,2 9,6 21 12 29 16 ZZW 1014,7 3,0 0,0
18.10.2018 04:00:00 10,0 9,5 20 11 28 15 ZW 1015,2 2,6 0,0
18.10.2018 03:00:00 9,9 9,4 24 13 29 16 ZW 1015,6 1,9 0,0
18.10.2018 02:00:00 10,0 9,7 23 12 31 17 ZZW 1015,8 1,5 0,0
18.10.2018 01:00:00 10,2 10,0 24 13 35 19 ZZW 1016,2 1,8 0,0
18.10.2018 00:00:00 10,5 10,3 27 15 34 19 ZZW 1016,4 1,9 0,0
17.10.2018 23:00:00 10,4 10,2 27 14 33 18 ZZW 1016,8 2,0 0,0
17.10.2018 22:00:00 9,7 9,6 23 12 30 16 Z 1017,0 6 0,0
17.10.2018 21:00:00 8,7 8,6 20 11 27 15 ZZW 1017,4 1,5 0,0
17.10.2018 20:00:00 8,5 8,4 18 10 27 15 ZZW 1017,7 0,5 0,0
17.10.2018 19:00:00 8,4 8,3 21 11 32 17 ZZW 1017,7 0,4 0,0
17.10.2018 18:00:00 9,1 9,0 24 13 33 18 ZW 1017,9 0,2 0,0
17.10.2018 17:00:00 10,0 9,8 22 12 30 16 ZZW 1017,7 0,2 0,0
17.10.2018 16:00:00 10,4 10,1 21 11 29 15 ZZW 1017,5 0,4 0,0
17.10.2018 15:00:00 10,3 10,0 20 11 27 14 ZZW 1017,9 0,5 0,0
17.10.2018 14:00:00 9,9 9,3 19 10 25 14 ZZW 1017,7 1,3 0,0
17.10.2018 13:00:00 9,9 9,0 18 10 26 14 ZZW 1017,8 6 0,0
17.10.2018 12:00:00 10,5 9,4 19 10 25 14 ZW 1017,8 7 0,0
17.10.2018 11:00:00 10,4 9,8 19 10 29 15 ZZW 1017,9 4,7 0,0
17.10.2018 10:00:00 10,5 10,2 22 12 29 16 ZZW 1017,8 5 0,0
17.10.2018 09:00:00 10,5 10,3 19 10 27 15 Z 1017,7 6 0,0
17.10.2018 08:00:00 10,1 9,9 22 12 25 14 Z 1017,5 8 0,0
17.10.2018 07:00:00 10,1 9,9 22 12 25 14 Z 1017,6 3,3 0,0
17.10.2018 06:00:00 9,7 9,6 14 8 17 9 ZZO 1017,7 1,1 0,0
17.10.2018 05:00:00 9,6 9,5 9 5 12 7 ZO 1018,1 0,2 0,0
17.10.2018 04:00:00 9,6 9,5 8 4 17 9 ZO 1018,4 0,2 0,0
17.10.2018 03:00:00 9,5 9,4 14 8 16 9 ZZO 1018,8 0,1 0,0
17.10.2018 02:00:00 9,6 9,5 10 6 13 7 ZO 1019,0 0,1 0,0
17.10.2018 01:00:00 9,4 9,3 9 5 14 8 OZO 1019,2 0,1 0,0
17.10.2018 00:00:00 9,2 9,1 12 6 20 11 ZO 1019,6 0,3 0,0
16.10.2018 23:00:00 9,2 8,9 13 7 16 8 O 1019,7 0,3 0,0
16.10.2018 22:00:00 9,1 8,8 9 5 15 8 O 1020,2 0,3 0,0
16.10.2018 21:00:00 8,9 8,6 14 8 18 10 O 1020,3 0,3 0,0
16.10.2018 20:00:00 8,6 8,3 16 9 19 10 O 1020,4 1,9 0,0
16.10.2018 19:00:00 8,7 8,3 15 8 19 11 ONO 1020,1 0,2 0,0
16.10.2018 18:00:00 9,3 8,7 13 7 19 10 NO 1020,2 30 0,0
16.10.2018 17:00:00 9,4 8,6 13 7 25 13 NNO 1019,6 34 0,0
16.10.2018 16:00:00 9,4 8,6 16 9 26 14 N 1019,8 37 0,0
16.10.2018 15:00:00 9,8 8,7 15 8 27 14 N 1019,4 40 0,0
16.10.2018 14:00:00 9,8 8,9 19 10 29 16 N 1019,3 35 0,0
16.10.2018 13:00:00 9,9 9,0 21 11 29 16 N 1019,2 50 0,0
16.10.2018 12:00:00 10,2 9,1 19 10 27 15 N 1018,6 31 0,0
16.10.2018 11:00:00 10,8 9,7 15 8 29 16 NNO 1018,1 21 0,0
16.10.2018 10:00:00 10,2 9,3 16 9 23 12 N 1017,5 13 0,0
16.10.2018 09:00:00 10,1 9,5 13 7 19 11 NNW 1016,7 11 0,0
16.10.2018 08:00:00 9,2 8,7 15 8 19 10 WNW 1016,1 6 0,0
16.10.2018 07:00:00 8,7 8,1 11 6 16 9 WZW 1015,6 7 0,0
16.10.2018 06:00:00 8,8 8,2 14 8 21 11 WZW 1015,1 8 0,0
16.10.2018 05:00:00 8,9 8,1 15 8 22 12 ZZW 1014,5 8 0,0
16.10.2018 04:00:00 9,1 8,2 16 9 30 16 ZW 1014,2 9 0,0
16.10.2018 03:00:00 9,4 8,3 27 15 37 20 ZW 1014,1 11 0,0
16.10.2018 02:00:00 9,7 8,5 31 17 40 22 ZW 1014,0 11 0,0
16.10.2018 01:00:00 9,9 8,7 29 16 37 20 ZZW 1014,0 11 0,0
16.10.2018 00:00:00 10,0 8,6 26 14 37 20 ZZW 1014,0 12 0,0
15.10.2018 23:00:00 10,1 8,9 25 13 35 19 ZZW 1014,3 11 0,0
15.10.2018 22:00:00 10,2 9,3 23 13 37 20 Z 1014,7 8 0,0
15.10.2018 21:00:00 10,5 9,1 28 15 34 19 Z 1014,7 12 0,0
15.10.2018 20:00:00 10,3 9,4 21 11 32 18 Z 1015,1 9 0,0
15.10.2018 19:00:00 10,4 9,3 21 12 29 16 Z 1015,0 10 0,0
15.10.2018 18:00:00 10,4 9,5 22 12 31 17 Z 1015,2 8 0,0
15.10.2018 17:00:00 10,5 9,4 24 13 30 16 Z 1015,1 9 0,0
15.10.2018 16:00:00 11,0 9,6 22 12 35 19 Z 1015,2 10 0,0
15.10.2018 15:00:00 11,2 9,5 29 15 35 19 Z 1015,3 12 0,0
15.10.2018 14:00:00 11,5 9,6 27 14 39 21 Z 1015,5 12 0,0
15.10.2018 13:00:00 11,3 9,6 29 16 35 19 Z 1015,6 12 0,0
15.10.2018 12:00:00 11,4 9,5 28 15 36 20 Z 1015,6 12 0,0
15.10.2018 11:00:00 11,4 9,5 26 14 36 20 Z 1015,9 13 0,0
15.10.2018 10:00:00 10,8 9,2 26 14 32 18 Z 1015,7 11 0,0
15.10.2018 09:00:00 10,5 9,3 22 12 34 19 ZZW 1015,6 10 0,0
15.10.2018 08:00:00 10,5 9,3 26 14 41 22 ZZW 1015,4 11 0,0
15.10.2018 07:00:00 10,6 9,2 29 16 38 20 Z 1015,1 11 0,0
15.10.2018 06:00:00 10,5 9,1 27 14 36 19 Z 1015,3 12 0,0
15.10.2018 05:00:00 10,7 9,0 28 15 39 21 ZZW 1015,2 13 0,0
15.10.2018 04:00:00 11,0 9,1 32 18 44 24 Z 1014,9 14 0,0
15.10.2018 03:00:00 11,1 9,2 32 17 44 24 Z 1014,8 14 0,0
15.10.2018 02:00:00 11,6 9,2 39 21 49 26 Z 1014,9 15 0,0
15.10.2018 01:00:00 11,7 9,4 37 20 46 25 Z 1015,3 14 0,0
15.10.2018 00:00:00 11,3 9,6 39 21 45 24 Z 1015,3 12 0,0
14.10.2018 23:00:00 11,1 9,8 31 17 41 22 Z 1016,1 8 0,0
14.10.2018 22:00:00 10,6 9,5 25 14 40 22 ZZW 1016,8 7 0,0

tt = temperatuur
td = dauwpunt
ff = windsnelheid
fx = windstoten
dd = windrichting
ppp = luchtdruk
vv = zicht
rr = neerslag

Weerstations in de omgeving